Flag for Uganda Weather past 2 weeks in Kampala, Uganda

Now
75 °F

Partly sunny.


Feels Like: 76 °F
Forecast: 58 / 78 °F
Wind: 6 mph from Southwest

Location: Entebbe Airport


UV Index: 3 (Moderate)

Visibility: N/A


Pressure: 30.04 "Hg

Humidity: 78%

Dew point: 68 °F

Location of KampalaLocation

Historic Weather in Kampala

°F

Kampala temperature yesterday

Maximum temperature yesterday: 79 °F (at 3:00 PM)
Minimum temperature yesterday: 70 °F (at 9:00 AM)
Average temperature yesterday: 76 °F

Past Weeks' High & Low Weather Summary

 TemperatureHumidityPressure
High79 °F (Apr 7, 2:00 PM)100% (Apr 6, 8:00 AM)30.15 "Hg (Apr 6, 8:00 AM)
Low64 °F (Apr 6, 8:00 AM)69% (Apr 5, 4:00 PM)29.95 "Hg (Apr 5, 5:00 PM)
Average73 °F81%30.06 "Hg
* Reported Apr 5 1:00 PM — Apr 20 1:00 PM, Kampala, Weather by CustomWeather, © 2014

Note: Actual official high and low records may vary slightly from our data, if they occured in-between our weather recording intervals... More about our weather records

Advertising

Historic Weather Conditions — Data for Previous 24 hours

 ConditionsComfort  
Time TempWeatherWind HumidityBarometerVisibility
1:00 PM
Apr 20
75 °FPartly sunny.6 mph78%30.04 "HgN/A
12:00 PM73 °FPartly sunny.7 mph83%30.07 "HgN/A
11:00 AM72 °FOvercast.6 mph83%30.07 "HgN/A
10:00 AM68 °FRain. Overcast.7 mph94%30.07 "Hg4 mi
9:00 AM68 °FThunderstorms. Overcast.6 mph94%30.07 "Hg4 mi
8:00 AM66 °FThunderstorms. More clouds than sun.13 mph94%30.07 "Hg4 mi
7:00 AM66 °FThunderstorms. More clouds than sun.8 mph94%30.04 "Hg5 mi
4:00 AM73 °FThunderstorms. Mostly cloudy.13 mph74%30.01 "HgN/A
3:00 AM75 °FThundershowers. Partly cloudy.10 mph78%30.01 "Hg6 mi
2:00 AM73 °FMild.10 mph89%30.04 "HgN/A
1:00 AM73 °FMild.10 mph89%30.07 "HgN/A
12:00 AM73 °FPassing clouds.8 mph83%30.07 "HgN/A
11:00 PM
Apr 19
73 °FPassing clouds.7 mph89%30.07 "HgN/A
8:00 PM73 °FPassing clouds.8 mph83%30.01 "HgN/A
7:00 PM73 °FPassing clouds.8 mph83%30.01 "HgN/A
6:00 PM77 °FScattered clouds.10 mph74%30.01 "HgN/A
5:00 PM79 °FScattered clouds.12 mph74%29.98 "HgN/A
4:00 PM79 °FScattered clouds.12 mph74%29.98 "HgN/A
3:00 PM79 °FScattered clouds.13 mph74%30.01 "HgN/A
Weather by CustomWeather, © 2014

See weather overview